STARLINK-2319, 47790

Orbit data source: Space-Track

STARLINK-2319, 47790 is a payload satellite owned by SpaceX/Seattle (US) in LEO that was launched on Thu, 11 Mar 2021 UTC via an FALCON 9 launch vehicle from the Air Force Eastern Test Range (AFETR). Payload-class satellites include a variety of spacecraft equipped with specific instruments for various scientific and technological missions. These include communications satellites like Starlink; space stations such as the ISS; scientific satellites like the Hubble; Earth observation satellites from companies like Planet Labs, Umbra, and HawkEye 360; GPS; miniature CubeSats for education and research; and military/defense satellites.

Loading next visibility...
Identifier
47790, 2021-018D
Orbit
LEO
Country
Flag of USUS
Related business
Manufacturer
SpaceX/Seattle
Mission
Operational Commercial Communications
Bus & Motor
STARLINK, Unknown motor
Mass
260 kg wet, ~248 kg dry
Launch date (UTC)
2021-03-11 (5 years ago)
Launch vehicle
FALCON 9
Launch site
Air Force Eastern Test Range (AFETR)
Object type
Payload
Rocket body
Debris
Shape & HBR
Box + 1 Pan, 10.1 m
Radar Cross Section
13.562 m², Large (>1 m²)

Expand to show TLE details & history
Last TLE update: 12 hours ago

TLE from 12 hours ago
0 STARLINK-2319
1 47790U 21018D   25292.28513576  .00000697  00000-0  65679-4 0  9995
2 47790  53.0527 136.4097 0001426  88.2401 271.8752 15.06408125255711
Epoch: 2025-10-19T06:50Z
TLE epoch observation values (Epoch: 2025-10-19T06:50:35.729Z)
Latitude
0.00003°
Longitude
5.75685°
Altitude
548.033 km
Speed
7.589 km/s
True Right ascension
09h 05m 38s
True Declination
0° 00' 00"
Sunlit
Object was in daylight at epoch
Visualization orbit readout
Latitude
Unknown
Longitude
Unknown
Altitude
Unknown
Speed
Unknown
Apparent Right ascension
Unknown
Apparent Declination
Unknown
Sunlit
N/A
Visualization observer readout
Local Sidereal Time
13:34:14
Azimuth
Unknown
Elevation
Unknown
Doppler factor
Unknown
Orbital elements
Apogee altitude
548.445 km
Perigee altitude
546.47 km
Semi-major axis
6,925.595 km
Eccentricity
0.00014
Inclination
53.0527°
RAAN
136.4097°
Arg. of periapsis
88.2401°
True anomaly
271.85887°
Mean anomaly
271.8752°
Eccentric anomaly
271.86703°
Mean motion
3.7658 °/min
Orbital period
95.6 mins
BSTAR
0.000065679
Loading maneuver chart data...
Computing Atmospheric mass density...
Loading historical data...
Loading historical data...
Loading historical data...
Loading historical data...
Loading historical data...
Loading historical data...
Loading historical data...

Documentation

Showing up to 5 results
|